User: anonymous   Login
Location: Camps Bay
(33.9517°S, 18.3844°E)
Time: 12:28:43
(UTC+00:00)
Language:

Meteor 1-4 Rocket - Orbit

View from above orbital plane
View from above orbital plane
View from above satellite
View from above satellite

Ground track
Ground track

The orbit data is extracted from the following two-line orbital elements,

1  4394U 70037B   20099.19375598  .00001025  00000-0  33660-4 0  9994
2  4394  81.2407 248.3692 0038303 214.1297 145.7477 15.29844767721559
Epoch (UTC): 08 April 2020 04:39:00
Eccentricity: 0.0038303
inclination: 81.2407°
perigee height: 450 km
apogee height: 502 km
right ascension of ascending node: 248.3692°
argument of perigee: 214.1297°
revolutions per day: 15.29844767
mean anomaly at epoch: 145.7477°
orbit number at epoch: 72155

The dashed part of the orbit path shows where the satellite is in the earth's shadow,  

DLR